Blackpool, United Kingdom

10:40 PM BST on July 25, 2017 (GMT +0100)
Blackpool

Weather History for EGNH - January, 2013

Change the Weather History Date:

Monday, January 14, 2013

  Actual Average Record
Temperature  
Mean Temperature 37 °F -  
Max Temperature 41 °F 43 °F 50 °F (2002)
Min Temperature 33 °F 36 °F 28 °F (2012)
Degree Days  
Heating Degree Days 28    
Moisture  
Dew Point 36 °F    
Average Humidity 91    
Maximum Humidity 100    
Minimum Humidity 67    
Precipitation  
Precipitation 0.16 in - - ()
Sea Level Pressure  
Sea Level Pressure 29.77 in    
Wind  
Wind Speed 9 mph ()    
Max Wind Speed 22 mph    
Max Gust Speed 28 mph    
Visibility 4.4 miles    
Events Rain    
Averages and records for this station are not official NWS values.
T = Trace of Precipitation, MM = Missing Value Source: Averaged Metar Reports

Daily Weather History Graph

Daily Weather History Graph

Search for Another Location

Airport or City:

Trip Planner

Search our weather history database for the weather conditions in past years. The results will help you decide how hot, cold, wet, or windy it might be!

Date:

Astronomy

Jan. 14, 2013 Rise Set
Actual Time 8:22 AM GMT 4:20 PM GMT
Civil Twilight 7:40 AM GMT 5:02 PM GMT
Nautical Twilight 6:56 AM GMT 5:46 PM GMT
Astronomical Twilight 6:14 AM GMT 6:28 PM GMT
Moon 9:13 AM GMT (1/14) 8:28 PM GMT (1/14)
Length of Visible Light 9h 21m
Length of Day
7h 58m
Waxing Crescent, 10% of the Moon is Illuminated
Jan 14
Waxing Crescent
Jan 18
First Quarter
Jan 27
Full
Feb 3
Last Quarter
Feb 10
New

Hourly Weather History & Observations

Time (GMT) Temp. Windchill Dew Point Humidity Pressure Visibility Wind Dir Wind Speed Gust Speed Precip Events Conditions
2:50 AM 34 °F - 33 °F 94%  in - ESE 6.9 mph - -  
5:50 AM 34 °F - 33 °F 95%  in - SE 8.1 mph - -  
6:20 AM 33.8 °F 27.7 °F 33.8 °F 100% 29.89 in 1.6 mi ESE 6.9 mph - N/A Rain Rain
6:50 AM 33.8 °F 27.0 °F 33.8 °F 100% 29.86 in 1.6 mi ESE 8.1 mph - N/A Rain Light Rain
7:20 AM 33.8 °F 27.0 °F 33.8 °F 100% 29.86 in 1.2 mi SE 8.1 mph - N/A Rain Rain
7:50 AM 35.6 °F 30.7 °F 35.6 °F 100% 29.86 in 1.2 mi ESE 5.8 mph - N/A Rain Rain
8:20 AM 35.6 °F 29.2 °F 35.6 °F 100% 29.86 in 1.0 mi SE 8.1 mph - N/A Rain Rain
8:50 AM 35 °F - 34 °F 96%  in - ESE 9.2 mph - -  
8:50 AM 35.6 °F 29.9 °F 35.6 °F 100% 29.83 in 1.0 mi ESE 6.9 mph - N/A Rain Light Rain
9:20 AM 35.6 °F 29.9 °F 35.6 °F 100% 29.83 in 1.0 mi SE 6.9 mph - N/A Rain Light Rain
9:50 AM 35.6 °F 30.7 °F 35.6 °F 100% 29.83 in 1.2 mi SE 5.8 mph - N/A   Mostly Cloudy
10:20 AM 35.6 °F 32.8 °F 35.6 °F 100% 29.80 in 1.6 mi Variable 3.5 mph - N/A   Scattered Clouds
10:50 AM 37.4 °F - 37.4 °F 100% 29.80 in 1.6 mi North 2.3 mph - N/A   Scattered Clouds
11:20 AM 39.2 °F 35.9 °F 39.2 °F 100% 29.80 in 1.9 mi NW 4.6 mph - N/A   Partly Cloudy
11:50 AM 41 °F - 38 °F 87%  in - NW 9.2 mph - -  
11:50 AM 41.0 °F 35.8 °F 41.0 °F 100% 29.80 in 5.0 mi NW 8.1 mph - N/A   Partly Cloudy
12:20 PM 41.0 °F 35.8 °F 41.0 °F 100% 29.77 in 6.2 mi NW 8.1 mph - N/A   Partly Cloudy
12:50 PM 41.0 °F 35.2 °F 41.0 °F 100% 29.77 in 6.2 mi NW 9.2 mph - N/A   Partly Cloudy
1:20 PM 39.2 °F 29.6 °F 39.2 °F 100% 29.74 in 6.2 mi NW 19.6 mph - N/A Rain Rain
1:50 PM 39.2 °F 31.6 °F 39.2 °F 100% 29.74 in 6.2 mi NNW 12.7 mph - N/A   Mostly Cloudy
2:20 PM 41.0 °F 31.4 °F 39.2 °F 93% 29.71 in 6.2 mi NW 21.9 mph - N/A Rain Light Rain Showers
2:50 PM 39 °F - 36 °F 84%  in - WNW 15.0 mph - -  
2:50 PM 39.2 °F 30.5 °F 37.4 °F 93% 29.71 in 6.2 mi NW 16.1 mph 27.6 mph N/A   Mostly Cloudy
3:20 PM 41.0 °F 32.5 °F 37.4 °F 87% 29.71 in 6.2 mi NNW 17.3 mph - N/A   Scattered Clouds
3:50 PM 41.0 °F 32.5 °F 35.6 °F 81% 29.71 in 6.2 mi NNW 17.3 mph - N/A   Scattered Clouds
4:20 PM 39.2 °F 29.6 °F 35.6 °F 87% 29.71 in 6.2 mi North 19.6 mph - N/A Rain Light Rain Showers
4:50 PM 39.2 °F 32.0 °F 35.6 °F 87% 29.71 in 6.2 mi North 11.5 mph - N/A   Scattered Clouds
5:20 PM 39.2 °F 30.2 °F 35.6 °F 87% 29.71 in 6.2 mi North 17.3 mph - N/A   Scattered Clouds
5:50 PM 38 °F - 33 °F 75%  in - North 13.8 mph - -  
5:50 PM 39.2 °F 30.8 °F 33.8 °F 81% 29.71 in 6.2 mi North 15.0 mph - N/A   Scattered Clouds
6:20 PM 39.2 °F 31.2 °F 33.8 °F 81% 29.74 in 6.2 mi North 13.8 mph - N/A   Scattered Clouds
6:50 PM 39.2 °F 30.8 °F 33.8 °F 81% 29.74 in 6.2 mi NNW 15.0 mph - N/A   Partly Cloudy
7:20 PM 39.2 °F 30.8 °F 33.8 °F 81% 29.74 in 6.2 mi North 15.0 mph - N/A   Partly Cloudy
7:50 PM 39.2 °F 30.8 °F 33.8 °F 81% 29.74 in 6.2 mi NNW 15.0 mph - N/A   Partly Cloudy
8:20 PM 39.2 °F 30.5 °F 33.8 °F 81% 29.74 in 6.2 mi NNW 16.1 mph - N/A   Partly Cloudy
8:50 PM 37.4 °F 28.5 °F 32.0 °F 81% 29.74 in 6.2 mi North 15.0 mph - N/A   Partly Cloudy
11:50 PM 37 °F - 30 °F 67%  in - North 13.8 mph - -